GALAXY 11 (G-11)

Last updated on Tue Oct 15 2024 00:02:37 GMT+0000 (Coordinated Universal Time)

1 26038U 99071A 24288.57896750 -.00000052 00000+0 00000+0 0 9992 2 26038 5.1782 77.7853 0000689 203.9247 116.6475 1.00271097 90951
UTC large
Height (km)
Speed (km/s)
/
Latitude / Longitude
Inclination (degrees)
Orbital Period (minutes)
Azimuth
Elevation
Range (km)
Doppler Factor

Next 0 passes for location: London (51.5072 / 0.1276)

Sorry there are no passes over London.